www.pogodaiklimat.ru

Погода и климат >> Архив погоды >> Узбекистан >> Каракалпакия


ПОГОДА в Каракалпакии

  • Прогноз погоды в Каракалпакии
  • Монитор погоды в Каракалпакии
  • Климат города

АРХИВ ПОГОДЫ в Каракалпакии

Время (UTC), дата Ветер
(напр.,м/с)
 
Видим.   Явления Облачность Т
(С)
Тd
(С)
f
(%)
Тe
(С)
Тes
(С)
Комфортность P
(гПа)
Po
(гПа)
Тmin
(С)
Tmax
(С)
R
(мм)
R24
(мм)
S
(см)
09 18.02 В 8 20 км 10/0
[Ci fib]
-6.0 -11.8 64 -15 -14 1032.0 1015.4
12 18.02 В 8 20 км 10/0
[Ci fib]
-7.2 -13.0 63 -16 -16 1029.9 1013.2
18 18.02 В 8 н/о 6/0
[Ci fib]
-11.7 -14.6 79 -22 -22 1027.9 1011.1 -6.0
21 18.02 В 8 н/о 8/0
[Ci fib]
-10.4 -13.2 80 -20 -20 1024.4 1009.5
00 19.02 СВ 7 н/о 8/0 600 м
[Ci sp]
-10.8 -13.6 80 -20 -20 1025.1 1008.3
03 19.02 В 8 200 м 10/10 600 м
[Sc]
-10.7 -13.5 80 -21 -21 1024.7 1007.9 8
06 19.02 В 6 20 км 10/10 600 м
[Sc]
-7.2 -11.1 74 -15 -15 1023.7 1007.3 -11.7
09 19.02 В 6 20 км 10/10 600 м
[Sc]
-4.6 -9.4 69 -12 -12 1022.8 1006.5
12 19.02 В 6 20 км 10/10 600 м
[Sc]
-4.6 -9.4 69 -12 -12 1022.2 1005.9
18 19.02 В 6 н/о 10/10 600 м
[Sc]
-6.2 -9.7 76 -14 -14 1020.8 1004.4 -3.8
21 19.02 В 3 н/о 10/10 600 м
[Sc]
-5.3 -8.2 80 -11 -11 1019.2 1002.8
00 20.02 В 3 н/о 10/10 600 м
[Sc]
-5.3 -8.2 80 -11 -11 1018.6 1002.3
03 20.02 В 3 200 м 10/10 600 м
[Sc]
-5.8 -8.4 82 -11 -11 1017.7 1001.4 8
06 20.02 штиль 0 20 км 10/10 600 м
[Sc]
-3.9 -7.6 75 -5 -5 1019.0 1002.7 -5.8
09 20.02 штиль 0 20 км 10/10 600 м
[Sc]
-2.1 -7.1 69 -3 -3 1017.7 1001.6
12 20.02 штиль 0 20 км 10/10 600 м
[Sc]
-2.6 -5.2 82 -4 -4 1017.9 1001.8
18 20.02 штиль 0 н/о 10/10 600 м
[Sc]
-4.0 -6.2 85 -5 -5 1019.3 1003.0 -1.9
21 20.02 В 2 н/о 6/0 600 м
[Ci sp]
-7.1 -9.2 85 -12 -12 1020.3 1003.9
00 21.02 З 2 н/о 6/0
[Ci sp]
-8.6 -10.5 86 -13 -13 1021.2 1004.6
03 21.02 З 2 200 м 8/0
[Ci fib]
-10.7 -12.0 90 -15 -15 1023.5 1006.8 6
06 21.02 З 3 20 км 10/0
[Ci sp]
-6.8 -8.8 86 -13 -9 1025.4 1008.9
09 21.02 С 3 20 км 10/0
[Ci sp]
-1.4 -5.4 74 -6 -1 1025.4 1009.2
12 21.02 С 3 20 км 10/10 600 м
[Sc]
-2.2 -7.3 68 -7 -7 1026.1 1009.9
18 21.02 В 2 н/о 10/10 600 м
[Sc]
-4.2 -5.4 91 -8 -8 1027.5 1011.1 -1.4
21 21.02 В 2 н/о 10/10 600 м
[Sc]
-4.6 -5.1 96 -9 -9 1028.0 1011.6
00 22.02 В 3 н/о 10/10 600 м
[Sc]
-4.4 -5.0 96 -10 -10 1027.6 1011.2
03 22.02 ЮВ 2 200 м 10/10 600 м
[Sc]
-4.4 -5.3 93 -9 -9 1026.9 1010.5 4
06 22.02 ЮВ 6 20 км 10/0
[Ci sp]
-2.1 -7.1 69 -9 -7 1026.1 1009.9 -4.7
09 22.02 ЮВ 4 20 км 8/0
[Ci sp]
-0.4 -6.1 65 -6 -1 1025.0 1008.9
12 22.02 В 2 20 км 10/10 600 м
[Sc]
-0.3 -5.9 66 -4 -4 1023.3 1007.2
18 22.02 В 2 н/о 10/0
[Ci sp]
-4.2 -5.4 91 -8 -8 1022.8 1006.5 0.0
21 22.02 В 2 н/о 10/0
[Ci sp]
-4.5 -5.8 91 -9 -9 1022.5 1006.2
00 23.02 В 1 н/о ясно -6.0 -6.8 94 -8 -8 1021.5 1005.1
03 23.02 В 1 200 м 6/0
[Ci sp]
-8.1 -8.7 95 -11 -11 1021.8 1005.2 3
06 23.02 СВ 2 20 км 6/0
[]
-5.2 -8.1 80 -9 -6 1022.5 1006.2 -8.4
09 23.02 СВ 2 20 км ясно +0.5 -3.5 75 -3 +5 1023.1 1007.1
12 23.02 СВ 2 20 км ясно +0.1 -4.7 70 -3 -2 1022.9 1006.8
15 23.02 СВ 2 н/о ясно -3.1 -6.6 77 -7 -7 1020.9 1004.7 +2.0
18 23.02 В 2 н/о ясно -5.1 -8.0 80 -9 -9 1021.7 1005.4 +2.0
21 23.02 В 2 н/о ясно -5.6 -6.5 93 -10 -10 1021.2 1004.9
00 24.02 ЮВ 3 н/о ясно -7.1 -9.6 82 -13 -13 1021.0 1004.7
03 24.02 ЮВ 5 500 м ясно -7.9 -9.7 87 -16 -16 1021.8 1005.2 3
06 24.02 ЮВ 5 20 км ясно -2.4 -6.0 76 -9 -6 1021.7 1005.5 -7.9
09 24.02 В 3 20 км 5/0
[Ci fib]
+0.5 -6.1 61 -4 +2 1020.8 1004.7
12 24.02 В 3 20 км 3/0
[Ci fib]
+0.7 -3.9 71 -4 -2 1019.5 1003.5
18 24.02 ЮВ 8 н/о 10/10 600 м
[Sc]
-3.8 -6.0 85 -12 -12 1020.3 1004.0 +1.4
21 24.02 ЮВ 7 н/о 10/10 600 м
[Sc]
-3.8 -3.9 99 -12 -12 1019.5 1002.8
00 25.02 ЮВ 5 н/о 10/10 600 м
[Sc]
-3.4 -3.5 99 -11 -11 1018.1 1001.4
03 25.02 ЮВ 5 200 м 10/10 600 м
[Sc]
-2.8 -3.5 95 -10 -10 1018.1 1002.0 3
06 25.02 ЮВ 5 20 км 10/10 600 м
[Sc]
-1.4 -2.8 90 -8 -8 1018.0 1002.0 -2.8

 

Местоположение метеостанции Каракалпакия (Каракалпакстан, Узбекистан): широта 44.85 долгота 56.33 высота над уровнем моря 126 м.

В архиве по умолчанию представлена погода в Каракалпакии за последнюю неделю. Архивные данные за месяц целиком и за предыдущие месяцы, начиная с января 2011 года, Вы можете получить, выбрав интересующий диапазон дат из раскрывающегося списка и нажав кнопку "Ввод!".

Внимание! Время в таблицах - всемирное. Для получения местного времени необходимо прибавить поправку, которая в Каракалпакии равна 5 ч.

Смотрите также архив погоды в соседних городах и на ближайших метеорологических станциях:

Погода в Саме (Мангистауская область, Казахстан) (63 км)
Погода в Бейнеу (Мангистауская область, Казахстан) (103 км)
Погода в Жаслыке (Каракалпакстан, Узбекистан) (144 км)
Погода в Опорной (Мангистауская область, Казахстан) (197 км)
Погода в Муйнаке (Каракалпакстан, Узбекистан) (227 км)
Погода в Сай-Утесе (Мангистауская область, Казахстан) (228 км)
Погода в Аккудуке (Мангистауская область, Казахстан) (274 км)
Погода в Кульсары (Атырауская область, Казахстан) (286 км)
Погода в Кунграде (Каракалпакстан, Узбекистан) (286 км)
Погода в Аяккуме (Актюбинская область, Казахстан) (303 км)

Пояснения к столбцам:

Ветер - указаны скорость ветра в м/с - средняя за 10 мин, порывы в срок и между сроками (в фигурных скобках) и направление, откуда дует ветер: С - северный, СВ - северо-восточный, В - восточный, ЮВ - юго-восточный, Ю - южный, ЮЗ - юго-западный, З - западный, СЗ - северо-западный.
Видимость - горизонтальная дальность видимости в метрах или километрах. При видимости от 1 до 10 км при отсутствии осадков обычно наблюдается дымка, при ухудшении видимости до 1 км и менее - туман. В сухую погоду видимость может ухудшаться дымом, пылью или мглою.
Явления - указаны атмосферные явления, наблюдавшиеся в срок или в последний час перед сроком; фигурными скобками обозначены явления, наблюдавшиеся между сроками (за 1-3 часа до срока); квадратными скобками обозначены град или гололедные отложения с указанием их диаметра в мм.
Облачность - указаны через наклонную черту общая и нижняя облачность в баллах и высота нижней границы облаков в метрах; квадратными скобками обозначены формы облаков: Ci - перистые, Cs - перисто-слоистые, Cc - перисто-кучевые, Ac - высококучевые, As - высокослоистые, Sc - слоисто-кучевые, Ns - слоисто-дождевые, Cu - кучевые, Cb - кучево-дождевые. Подробнее классификацию облаков см. в Атласе облаков (PDF).
T - Температура воздуха - температура, измеренная на высоте 2 м над землей.
Td - Температура точки росы - температура, при понижении до которой содержащийся в воздухе водяной пар достигнет насыщения.
f - Относительная влажность воздуха - влажноcть воздуха, измеренная на высоте 2 м над землей.
Te - Эффективная температура - температура, которую ощущает одетый по сезону человек в тени. Характеристика душности погоды. При расчете учитывается влияние влажности воздуха и скорости ветра на теплоощущения человека.
Tes - Эффективная температура на солнце - температура, которую ощущает человек, с поправкой на солнечный нагрев. Характеристика знойности погоды. Зависит от высоты солнца над горизонтом, облачности и скорости ветра. Ночью, в пасмурную погоду, а также при ветре 12 м/с и более поправка равна нулю.
P - Атмосферное давление - приведенное к уровню моря атмосферное давление.
Po - Атмосферное давление - измеренное на уровне метеостанции атмосферное давление.
Tmin - Минимальная температура - минимум температуры воздуха на высоте 2 м над землей.
Tmax - Максимальная температура - максимум температуры воздуха на высоте 2 м над землей.
R - Количество осадков - Количество выпавших осадков за период времени, мм. При наведении курсора мыши на число - период времени, за который выпало указанное количество осадков.
R24 - Количество осадков - Количество выпавших осадков за 24 часа, мм.
S - Снежный покров - Высота снежного покрова, см. При наведении курсора мыши на число - состояние снежного покрова и степень покрытия местности в баллах.